Find Starlink 3871

NORAD ID: 52496 Int'l Des: 2022-049 Owner: SPXS Country: US Constellation: starlink operational
LEOCIRCULAR

Current View

Loading 3D Globe...

About Starlink 3871

Description loading...

Upcoming Passes

Passes for default location (London). Set your location on the main map for personalized predictions.

Altitude History

Loading altitude history...

Two-Line Element Set

1 52496U 22049AX 26145.15342932 .00000477 00000-0 48085-4 0 9997
2 52496 53.2125 60.8612 0001235 86.6642 273.4492 15.08836467224009
Epoch: May 25, 2026 • Age: 6 hours

Current Status

Altitude 551.6 km
Velocity 7.59 km/s
Sub-Earth Point -35.20°S, 2.52°W
Launch Date May 6, 2022
Age 4 years
Type internet

Technical Details

Classification Payload
Mass 297.00 kg
Dry Mass 220.00 kg
Total Mass 297.00 kg
Length 0.20 m
Diameter 2.80 m
Span 9.00 m
Shape Box + pan
Manufacturer SPXS
Bus Type Starlink
Phase Status In Orbit
Owner/State SPXS/US

Most Searched